Погода в Атнарах

Россия / Чувашская Республика     55°39′09″N   46°12′36″E
темп.,
°C
ветер,
м/с
пор.,
м/с
влажн.,
%
обл.,
%
осадки,
мм/ч
давл.,
гПа
погр.,
м
16 мая, вс
вс1600:00+17ю37776 0.0 1014113
03:00+15ююв2283100 0.0 101413
06:00+17ю247764 0.0 1014139
09:00+21ююз4664100 0.0 1014437
12:00+25ююз5760100 0.0 10151047
15:00+21зсз2480100 0.7 1015104
18:00+20юз2777100 1.6 1015259
21:00+17юз239136 1.9 101554
17 мая, пн
пн1700:00+15ююз228665 0.1 101614
03:00+15юз118991 0.4 101711
06:00+18юв0081100 0.0 101751
09:00+22всв116885 0.0 1018386
12:00+26юв125417 0.0 1017982
15:00+27зюз234941 0.0 10171201
18:00+25ссв126367 0.0 101616
21:00+20в227733 0.0 101717
18 мая, вт
вт1800:00+17юв227270 0.0 101713
03:00+17вюв226547 0.0 101722
06:00+18вюв257382 0.0 1017111
09:00+23вюв455854 0.0 1017385
12:00+28юв463948 0.0 10172080
15:00+29юв35395 0.0 10161826
18:00+24вюв476222 0.0 1016131
21:00+19вюв410525 0.0 1017123
19 мая, ср
ср1900:00+18вюв5137611 0.0 1017192
03:00+16вюв4108617 0.0 1017157
06:00+18вюв411815 0.0 1017267
09:00+23вюв69652 0.0 1016472
12:00+26вюв79565 0.0 10161127
15:00+26вюв710570 0.0 10151035
18:00+23в713692 0.0 1015418
21:00+17в410781 0.1 1014177
20 мая, чт
чт2000:00+17вюв6146975 0.0 1014259
03:00+17юв613705 0.0 1014297
06:00+17вюв613780 0.0 1013341
09:00+22юв69611 0.0 1013902
12:00+24юв710550 0.0 10121553
15:00+19ююз71184100 1.5 1014421
18:00+18ююз5980100 1.0 1015502
21:00+14ююв3792100 1.0 1016151